Year,Month,Day,Hour,Minute,Value (Times are PST for temperature in C)
2016,07,28,00,00,21.80
2016,07,28,00,01,21.70
2016,07,28,00,02,21.70
2016,07,28,00,03,21.70
2016,07,28,00,04,21.60
2016,07,28,00,05,21.60
2016,07,28,00,06,21.50
2016,07,28,00,07,21.50
2016,07,28,00,08,21.50
2016,07,28,00,09,21.50
2016,07,28,00,10,21.40
2016,07,28,00,11,21.40
2016,07,28,00,12,21.30
2016,07,28,00,13,21.30
2016,07,28,00,14,21.30
2016,07,28,00,15,21.30
2016,07,28,00,16,21.30
2016,07,28,00,17,21.30
2016,07,28,00,18,21.30
2016,07,28,00,19,21.30
2016,07,28,00,20,21.20
2016,07,28,00,21,21.30
2016,07,28,00,22,21.30
2016,07,28,00,23,21.30
2016,07,28,00,24,21.30
2016,07,28,00,25,21.20
2016,07,28,00,26,21.30
2016,07,28,00,27,21.30
2016,07,28,00,28,21.30
2016,07,28,00,29,21.30
2016,07,28,00,30,21.30
2016,07,28,00,31,21.20
2016,07,28,00,32,21.10
2016,07,28,00,33,21.00
2016,07,28,00,34,21.00
2016,07,28,00,35,20.90
2016,07,28,00,36,20.90
2016,07,28,00,37,20.90
2016,07,28,00,38,20.90
2016,07,28,00,39,20.90
2016,07,28,00,40,20.90
2016,07,28,00,41,20.90
2016,07,28,00,42,20.90
2016,07,28,00,43,20.90
2016,07,28,00,44,20.90
2016,07,28,00,45,20.90
2016,07,28,00,46,20.90
2016,07,28,00,47,20.90
2016,07,28,00,48,20.80
2016,07,28,00,49,20.80
2016,07,28,00,50,20.80
2016,07,28,00,51,20.80
2016,07,28,00,52,20.80
2016,07,28,00,53,20.80
2016,07,28,00,54,20.80
2016,07,28,00,55,20.80
2016,07,28,00,56,20.80
2016,07,28,00,57,20.80
2016,07,28,00,58,20.70
2016,07,28,00,59,20.70
2016,07,28,01,00,20.70
2016,07,28,01,01,20.70
2016,07,28,01,02,20.70
2016,07,28,01,03,20.70
2016,07,28,01,04,20.60
2016,07,28,01,05,20.60
2016,07,28,01,06,20.60
2016,07,28,01,07,20.50
2016,07,28,01,08,20.50
2016,07,28,01,09,20.50
2016,07,28,01,10,20.50
2016,07,28,01,11,20.60
2016,07,28,01,12,20.60
2016,07,28,01,13,20.60
2016,07,28,01,14,20.60
2016,07,28,01,15,20.60
2016,07,28,01,16,20.60
2016,07,28,01,17,20.60
2016,07,28,01,18,20.60
2016,07,28,01,19,20.60
2016,07,28,01,20,20.60
2016,07,28,01,21,20.60
2016,07,28,01,22,20.60
2016,07,28,01,23,20.60
2016,07,28,01,24,20.60
2016,07,28,01,25,20.60
2016,07,28,01,26,20.60
2016,07,28,01,27,20.60
2016,07,28,01,28,20.50
2016,07,28,01,29,20.50
2016,07,28,01,30,20.50
2016,07,28,01,31,20.40
2016,07,28,01,32,20.40
2016,07,28,01,33,20.50
2016,07,28,01,34,20.50
2016,07,28,01,35,20.50
2016,07,28,01,36,20.40
2016,07,28,01,37,20.40
2016,07,28,01,38,20.40
2016,07,28,01,39,20.40
2016,07,28,01,40,20.40
2016,07,28,01,41,20.40
2016,07,28,01,42,20.30
2016,07,28,01,43,20.30
2016,07,28,01,44,20.30
2016,07,28,01,45,20.30
2016,07,28,01,46,20.40
2016,07,28,01,47,20.40
2016,07,28,01,48,20.40
2016,07,28,01,49,20.40
2016,07,28,01,50,20.40
2016,07,28,01,51,20.40
2016,07,28,01,52,20.40
2016,07,28,01,53,20.40
2016,07,28,01,54,20.40
2016,07,28,01,55,20.40
2016,07,28,01,56,20.40
2016,07,28,01,57,20.40
2016,07,28,01,58,20.40
2016,07,28,01,59,20.40
2016,07,28,02,00,20.40
2016,07,28,02,01,20.50
2016,07,28,02,02,20.50
2016,07,28,02,03,20.50
2016,07,28,02,04,20.40
2016,07,28,02,05,20.40
2016,07,28,02,06,20.40
2016,07,28,02,07,20.30
2016,07,28,02,08,20.30
2016,07,28,02,09,20.30
2016,07,28,02,10,20.30
2016,07,28,02,11,20.20
2016,07,28,02,12,20.20
2016,07,28,02,13,20.20
2016,07,28,02,14,20.20
2016,07,28,02,15,20.20
2016,07,28,02,16,20.20
2016,07,28,02,17,20.20
2016,07,28,02,18,20.20
2016,07,28,02,19,20.10
2016,07,28,02,20,20.10
2016,07,28,02,21,20.10
2016,07,28,02,22,20.10
2016,07,28,02,23,20.00
2016,07,28,02,24,20.00
2016,07,28,02,25,20.00
2016,07,28,02,26,20.00
2016,07,28,02,27,20.00
2016,07,28,02,28,20.00
2016,07,28,02,29,20.00
2016,07,28,02,30,20.10
2016,07,28,02,31,20.10
2016,07,28,02,32,20.10
2016,07,28,02,33,20.10
2016,07,28,02,34,20.10
2016,07,28,02,35,20.10
2016,07,28,02,36,20.10
2016,07,28,02,37,20.10
2016,07,28,02,38,20.10
2016,07,28,02,39,20.10
2016,07,28,02,40,20.10
2016,07,28,02,41,20.10
2016,07,28,02,42,20.10
2016,07,28,02,43,20.10
2016,07,28,02,44,20.10
2016,07,28,02,45,20.20
2016,07,28,02,46,20.10
2016,07,28,02,47,20.10
2016,07,28,02,48,20.10
2016,07,28,02,49,20.10
2016,07,28,02,50,20.10
2016,07,28,02,51,20.10
2016,07,28,02,52,20.10
2016,07,28,02,53,20.10
2016,07,28,02,54,20.00
2016,07,28,02,55,19.90
2016,07,28,02,56,19.90
2016,07,28,02,57,19.80
2016,07,28,02,58,19.80
2016,07,28,02,59,19.90
2016,07,28,03,00,19.90
2016,07,28,03,01,19.90
2016,07,28,03,02,19.90
2016,07,28,03,03,19.90
2016,07,28,03,04,19.90
2016,07,28,03,05,19.90
2016,07,28,03,06,19.90
2016,07,28,03,07,19.90
2016,07,28,03,08,19.90
2016,07,28,03,09,20.00
2016,07,28,03,10,20.00
2016,07,28,03,11,20.00
2016,07,28,03,12,20.00
2016,07,28,03,13,20.00
2016,07,28,03,14,20.00
2016,07,28,03,15,19.90
2016,07,28,03,16,19.90
2016,07,28,03,17,19.90
2016,07,28,03,18,19.90
2016,07,28,03,19,19.80
2016,07,28,03,20,19.80
2016,07,28,03,21,19.80
2016,07,28,03,22,19.80
2016,07,28,03,23,19.80
2016,07,28,03,24,19.70
2016,07,28,03,25,19.70
2016,07,28,03,26,19.70
2016,07,28,03,27,19.70
2016,07,28,03,28,19.60
2016,07,28,03,29,19.60
2016,07,28,03,30,19.60
2016,07,28,03,31,19.60
2016,07,28,03,32,19.60
2016,07,28,03,33,19.60
2016,07,28,03,34,19.60
2016,07,28,03,35,19.70
2016,07,28,03,36,19.60
2016,07,28,03,37,19.60
2016,07,28,03,38,19.60
2016,07,28,03,39,19.60
2016,07,28,03,40,19.60
2016,07,28,03,41,19.50
2016,07,28,03,42,19.50
2016,07,28,03,43,19.40
2016,07,28,03,44,19.40
2016,07,28,03,45,19.50
2016,07,28,03,46,19.50
2016,07,28,03,47,19.50
2016,07,28,03,48,19.50
2016,07,28,03,49,19.60
2016,07,28,03,50,19.60
2016,07,28,03,51,19.70
2016,07,28,03,52,19.70
2016,07,28,03,53,19.70
2016,07,28,03,54,19.70
2016,07,28,03,55,19.70
2016,07,28,03,56,19.70
2016,07,28,03,57,19.80
2016,07,28,03,58,19.80
2016,07,28,03,59,19.80
2016,07,28,04,00,19.80
2016,07,28,04,01,19.80
2016,07,28,04,02,19.80
2016,07,28,04,03,19.80
2016,07,28,04,04,19.80
2016,07,28,04,05,19.80
2016,07,28,04,06,19.80
2016,07,28,04,07,19.80
2016,07,28,04,08,19.80
2016,07,28,04,09,19.80
2016,07,28,04,10,19.80
2016,07,28,04,11,19.80
2016,07,28,04,12,19.80
2016,07,28,04,13,19.80
2016,07,28,04,14,19.80
2016,07,28,04,15,19.80
2016,07,28,04,16,19.80
2016,07,28,04,17,19.90
2016,07,28,04,18,19.90
2016,07,28,04,19,19.90
2016,07,28,04,20,19.90
2016,07,28,04,21,19.90
2016,07,28,04,22,19.90
2016,07,28,04,23,19.90
2016,07,28,04,24,19.90
2016,07,28,04,25,19.80
2016,07,28,04,26,19.80
2016,07,28,04,27,19.80
2016,07,28,04,28,19.80
2016,07,28,04,29,19.80
2016,07,28,04,30,19.80
2016,07,28,04,31,19.80
2016,07,28,04,32,19.80
2016,07,28,04,33,19.90
2016,07,28,04,34,19.80
2016,07,28,04,35,19.80
2016,07,28,04,36,19.80
2016,07,28,04,37,19.70
2016,07,28,04,38,19.70
2016,07,28,04,39,19.70
2016,07,28,04,40,19.70
2016,07,28,04,41,19.80
2016,07,28,04,42,19.80
2016,07,28,04,43,19.90
2016,07,28,04,44,19.90
2016,07,28,04,45,20.00
2016,07,28,04,46,20.00
2016,07,28,04,47,20.00
2016,07,28,04,48,19.90
2016,07,28,04,49,19.90
2016,07,28,04,50,19.90
2016,07,28,04,51,19.80
2016,07,28,04,52,19.80
2016,07,28,04,53,19.80
2016,07,28,04,54,19.80
2016,07,28,04,55,19.90
2016,07,28,04,56,19.90
2016,07,28,04,57,20.00
2016,07,28,04,58,20.00
2016,07,28,04,59,20.10
2016,07,28,05,00,20.10
2016,07,28,05,01,20.10
2016,07,28,05,02,20.10
2016,07,28,05,03,20.10
2016,07,28,05,04,20.10
2016,07,28,05,05,20.10
2016,07,28,05,06,20.10
2016,07,28,05,07,20.10
2016,07,28,05,08,20.10
2016,07,28,05,09,20.10
2016,07,28,05,10,20.10
2016,07,28,05,11,20.20
2016,07,28,05,12,20.10
2016,07,28,05,13,20.10
2016,07,28,05,14,20.10
2016,07,28,05,15,20.10
2016,07,28,05,16,20.10
2016,07,28,05,17,20.00
2016,07,28,05,18,20.00
2016,07,28,05,19,20.00
2016,07,28,05,20,20.00
2016,07,28,05,21,20.00
2016,07,28,05,22,20.00
2016,07,28,05,23,19.90
2016,07,28,05,24,19.90
2016,07,28,05,25,19.90
2016,07,28,05,26,19.90
2016,07,28,05,27,19.90
2016,07,28,05,28,19.90
2016,07,28,05,29,19.90
2016,07,28,05,30,19.90
2016,07,28,05,31,19.90
2016,07,28,05,32,19.80
2016,07,28,05,33,19.80
2016,07,28,05,34,19.90
2016,07,28,05,35,19.90
2016,07,28,05,36,19.90
2016,07,28,05,37,19.90
2016,07,28,05,38,19.80
2016,07,28,05,39,19.90
2016,07,28,05,40,19.80
2016,07,28,05,41,19.80
2016,07,28,05,42,19.80
2016,07,28,05,43,19.80
2016,07,28,05,44,19.80
2016,07,28,05,45,19.80
2016,07,28,05,46,19.80
2016,07,28,05,47,19.80
2016,07,28,05,48,19.80
2016,07,28,05,49,19.80
2016,07,28,05,50,19.80
2016,07,28,05,51,19.80
2016,07,28,05,52,19.80
2016,07,28,05,53,19.80
2016,07,28,05,54,19.80
2016,07,28,05,55,19.80
2016,07,28,05,56,19.80
2016,07,28,05,57,19.80
2016,07,28,05,58,19.70
2016,07,28,05,59,19.70
2016,07,28,06,00,19.70
2016,07,28,06,01,19.70
2016,07,28,06,02,19.70
2016,07,28,06,03,19.70
2016,07,28,06,04,19.70
2016,07,28,06,05,19.70
2016,07,28,06,06,19.70
2016,07,28,06,07,19.70
2016,07,28,06,08,19.70
2016,07,28,06,09,19.70
2016,07,28,06,10,19.70
2016,07,28,06,11,19.80
2016,07,28,06,12,19.80
2016,07,28,06,13,19.80
2016,07,28,06,14,19.80
2016,07,28,06,15,19.90
2016,07,28,06,16,19.90
2016,07,28,06,17,19.90
2016,07,28,06,18,19.90
2016,07,28,06,19,19.90
2016,07,28,06,20,19.90
2016,07,28,06,21,19.90
2016,07,28,06,22,19.90
2016,07,28,06,23,20.00
2016,07,28,06,24,20.00
2016,07,28,06,25,20.00
2016,07,28,06,26,20.00
2016,07,28,06,27,20.00
2016,07,28,06,28,20.00
2016,07,28,06,29,20.00
2016,07,28,06,30,20.00
2016,07,28,06,31,20.00
2016,07,28,06,32,20.00
2016,07,28,06,33,20.00
2016,07,28,06,34,20.00
2016,07,28,06,35,20.10
2016,07,28,06,36,20.10
2016,07,28,06,37,20.20
2016,07,28,06,38,20.20
2016,07,28,06,39,20.20
2016,07,28,06,40,20.20
2016,07,28,06,41,20.10
2016,07,28,06,42,20.10
2016,07,28,06,43,20.10
2016,07,28,06,44,20.10
2016,07,28,06,45,20.10
2016,07,28,06,46,20.10
2016,07,28,06,47,20.10
2016,07,28,06,48,20.00
2016,07,28,06,49,20.00
2016,07,28,06,50,20.00
2016,07,28,06,51,20.10
2016,07,28,06,52,20.10
2016,07,28,06,53,20.10
2016,07,28,06,54,20.10
2016,07,28,06,55,20.10
2016,07,28,06,56,20.10
2016,07,28,06,57,20.10
2016,07,28,06,58,20.10
2016,07,28,06,59,20.10
2016,07,28,07,00,20.10
2016,07,28,07,01,20.10
2016,07,28,07,02,20.10
2016,07,28,07,03,20.10
2016,07,28,07,04,20.10
2016,07,28,07,05,20.10
2016,07,28,07,06,20.20
2016,07,28,07,07,20.20
2016,07,28,07,08,20.10
2016,07,28,07,09,20.10
2016,07,28,07,10,20.10
2016,07,28,07,11,20.00
2016,07,28,07,12,20.00
2016,07,28,07,13,20.00
2016,07,28,07,14,20.00
2016,07,28,07,15,20.00
2016,07,28,07,16,20.00
2016,07,28,07,17,20.10
2016,07,28,07,18,20.10
2016,07,28,07,19,20.10
2016,07,28,07,20,20.10
2016,07,28,07,21,20.10
2016,07,28,07,22,20.10
2016,07,28,07,23,20.10
2016,07,28,07,24,20.10
2016,07,28,07,25,20.10
2016,07,28,07,26,20.10
2016,07,28,07,27,20.10
2016,07,28,07,28,20.20
2016,07,28,07,29,20.20
2016,07,28,07,30,20.30
2016,07,28,07,31,20.30
2016,07,28,07,32,20.40
2016,07,28,07,33,20.40
2016,07,28,07,34,20.50
2016,07,28,07,35,20.60
2016,07,28,07,36,20.70
2016,07,28,07,37,20.70
2016,07,28,07,38,20.80
2016,07,28,07,39,20.80
2016,07,28,07,40,20.80
2016,07,28,07,41,20.80
2016,07,28,07,42,20.70
2016,07,28,07,43,20.70
2016,07,28,07,44,20.70
2016,07,28,07,45,20.80
2016,07,28,07,46,20.90
2016,07,28,07,47,21.00
2016,07,28,07,48,21.00
2016,07,28,07,49,21.10
2016,07,28,07,50,21.20
2016,07,28,07,51,21.10
2016,07,28,07,52,21.00
2016,07,28,07,53,21.00
2016,07,28,07,54,20.90
2016,07,28,07,55,20.80
2016,07,28,07,56,20.70
2016,07,28,07,57,20.60
2016,07,28,07,58,20.50
2016,07,28,07,59,20.40
2016,07,28,08,00,20.40
2016,07,28,08,01,20.50
2016,07,28,08,02,20.40
2016,07,28,08,03,20.40
2016,07,28,08,04,20.40
2016,07,28,08,05,20.30
2016,07,28,08,06,20.20
2016,07,28,08,07,20.10
2016,07,28,08,08,20.00
2016,07,28,08,09,20.00
2016,07,28,08,10,19.90
2016,07,28,08,11,19.90
2016,07,28,08,12,19.80
2016,07,28,08,13,19.80
2016,07,28,08,14,19.80
2016,07,28,08,15,19.80
2016,07,28,08,16,19.80
2016,07,28,08,17,20.00
2016,07,28,08,18,20.20
2016,07,28,08,19,20.20
2016,07,28,08,20,20.20
2016,07,28,08,21,20.20
2016,07,28,08,22,20.20
2016,07,28,08,23,20.10
2016,07,28,08,24,20.00
2016,07,28,08,25,19.90
2016,07,28,08,26,19.80
2016,07,28,08,27,19.80
2016,07,28,08,28,19.70
2016,07,28,08,29,19.70
2016,07,28,08,30,19.70
2016,07,28,08,31,19.70
2016,07,28,08,32,19.80
2016,07,28,08,33,19.90
2016,07,28,08,34,20.10
2016,07,28,08,35,20.30
2016,07,28,08,36,20.40
2016,07,28,08,37,20.50
2016,07,28,08,38,20.60
2016,07,28,08,39,20.60
2016,07,28,08,40,20.50
2016,07,28,08,41,20.40
2016,07,28,08,42,20.40
2016,07,28,08,43,20.30
2016,07,28,08,44,20.30
2016,07,28,08,45,20.40
2016,07,28,08,46,20.40
2016,07,28,08,47,20.50
2016,07,28,08,48,20.60
2016,07,28,08,49,20.60
2016,07,28,08,50,20.60
2016,07,28,08,51,20.60
2016,07,28,08,52,20.70
2016,07,28,08,53,20.70
2016,07,28,08,54,20.80
2016,07,28,08,55,20.90
2016,07,28,08,56,20.80
2016,07,28,08,57,20.80
2016,07,28,08,58,20.80
2016,07,28,08,59,20.80
2016,07,28,09,00,20.80
2016,07,28,09,01,20.80
2016,07,28,09,02,20.70
2016,07,28,09,03,20.70
2016,07,28,09,04,20.80
2016,07,28,09,05,20.70
2016,07,28,09,06,20.70
2016,07,28,09,07,20.70
2016,07,28,09,08,20.80
2016,07,28,09,09,20.80
2016,07,28,09,10,20.80
2016,07,28,09,11,20.80
2016,07,28,09,12,20.80
2016,07,28,09,13,20.90
2016,07,28,09,14,20.90
2016,07,28,09,15,21.00
2016,07,28,09,16,21.00
2016,07,28,09,17,21.10
2016,07,28,09,18,21.10
2016,07,28,09,19,21.10
2016,07,28,09,20,21.10
2016,07,28,09,21,21.10
2016,07,28,09,22,21.10
2016,07,28,09,23,21.10
2016,07,28,09,24,21.10
2016,07,28,09,25,21.10
2016,07,28,09,26,21.10
2016,07,28,09,27,21.20
2016,07,28,09,28,21.20
2016,07,28,09,29,21.30
2016,07,28,09,30,21.30
2016,07,28,09,31,21.30
2016,07,28,09,32,21.30
2016,07,28,09,33,21.40
2016,07,28,09,34,21.40
2016,07,28,09,35,21.40
2016,07,28,09,36,21.50
2016,07,28,09,37,21.50
2016,07,28,09,38,21.60
2016,07,28,09,39,21.70
2016,07,28,09,40,21.80
2016,07,28,09,41,21.80
2016,07,28,09,42,21.80
2016,07,28,09,43,21.90
2016,07,28,09,44,21.90
2016,07,28,09,45,22.00
2016,07,28,09,46,22.00
2016,07,28,09,47,22.10
2016,07,28,09,48,22.10
2016,07,28,09,49,22.10
2016,07,28,09,50,22.10
2016,07,28,09,51,22.10
2016,07,28,09,52,22.10
2016,07,28,09,53,22.20
2016,07,28,09,54,22.20
2016,07,28,09,55,22.20
2016,07,28,09,56,22.20
2016,07,28,09,57,22.20
2016,07,28,09,58,22.30
2016,07,28,09,59,22.40
2016,07,28,10,00,22.40
2016,07,28,10,01,22.40
2016,07,28,10,02,22.50
2016,07,28,10,03,22.50
2016,07,28,10,04,22.60
2016,07,28,10,05,22.60
2016,07,28,10,06,22.70
2016,07,28,10,07,22.70
2016,07,28,10,08,22.80
2016,07,28,10,09,22.80
2016,07,28,10,10,22.80
2016,07,28,10,11,22.80
2016,07,28,10,12,22.90
2016,07,28,10,13,23.00
2016,07,28,10,14,23.00
2016,07,28,10,15,23.10
2016,07,28,10,16,23.10
2016,07,28,10,17,23.20
2016,07,28,10,18,23.20
2016,07,28,10,19,23.20
2016,07,28,10,20,23.20
2016,07,28,10,21,23.20
2016,07,28,10,22,23.20
2016,07,28,10,23,23.30
2016,07,28,10,24,23.30
2016,07,28,10,25,23.30
2016,07,28,10,26,23.30
2016,07,28,10,27,23.30
2016,07,28,10,28,23.30
2016,07,28,10,29,23.30
2016,07,28,10,30,23.30
2016,07,28,10,31,23.30
2016,07,28,10,32,23.30
2016,07,28,10,33,23.30
2016,07,28,10,34,23.30
2016,07,28,10,35,23.40
2016,07,28,10,36,23.40
2016,07,28,10,37,23.50
2016,07,28,10,38,23.60
2016,07,28,10,39,23.70
2016,07,28,10,40,23.70
2016,07,28,10,41,23.80
2016,07,28,10,42,23.80
2016,07,28,10,43,23.80
2016,07,28,10,44,23.70
2016,07,28,10,45,23.70
2016,07,28,10,46,23.80
2016,07,28,10,47,23.80
2016,07,28,10,48,23.80
2016,07,28,10,49,23.80
2016,07,28,10,50,23.70
2016,07,28,10,51,23.70
2016,07,28,10,52,23.70
2016,07,28,10,53,23.80
2016,07,28,10,54,23.90
2016,07,28,10,55,23.90
2016,07,28,10,56,23.90
2016,07,28,10,57,23.90
2016,07,28,10,58,24.00
2016,07,28,10,59,24.00
2016,07,28,11,00,24.10
2016,07,28,11,01,24.20
2016,07,28,11,02,24.20
2016,07,28,11,03,24.30
2016,07,28,11,04,24.40
2016,07,28,11,05,24.40
2016,07,28,11,06,24.40
2016,07,28,11,07,24.40
2016,07,28,11,08,24.40
2016,07,28,11,09,24.30
2016,07,28,11,10,24.40
2016,07,28,11,11,24.40
2016,07,28,11,12,24.40
2016,07,28,11,13,24.40
2016,07,28,11,14,24.40
2016,07,28,11,15,24.50
2016,07,28,11,16,24.50
2016,07,28,11,17,24.50
2016,07,28,11,18,24.60
2016,07,28,11,19,24.60
2016,07,28,11,20,24.70
2016,07,28,11,21,24.70
2016,07,28,11,22,24.70
2016,07,28,11,23,24.70
2016,07,28,11,24,24.70
2016,07,28,11,25,24.80
2016,07,28,11,26,24.80
2016,07,28,11,27,24.90
2016,07,28,11,28,24.90
2016,07,28,11,29,24.90
2016,07,28,11,30,24.90
2016,07,28,11,31,25.00
2016,07,28,11,32,25.00
2016,07,28,11,33,25.10
2016,07,28,11,34,25.20
2016,07,28,11,35,25.20
2016,07,28,11,36,25.30
2016,07,28,11,37,25.40
2016,07,28,11,38,25.40
2016,07,28,11,39,25.40
2016,07,28,11,40,25.40
2016,07,28,11,41,25.50
2016,07,28,11,42,25.60
2016,07,28,11,43,25.70
2016,07,28,11,44,25.70
2016,07,28,11,45,25.70
2016,07,28,11,46,25.60
2016,07,28,11,47,25.60
2016,07,28,11,48,25.60
2016,07,28,11,49,25.70
2016,07,28,11,50,25.70
2016,07,28,11,51,25.80
2016,07,28,11,52,25.90
2016,07,28,11,53,25.90
2016,07,28,11,54,25.90
2016,07,28,11,55,26.00
2016,07,28,11,56,26.00
2016,07,28,11,57,26.00
2016,07,28,11,58,26.00
2016,07,28,11,59,26.10
2016,07,28,12,00,26.10
2016,07,28,12,01,26.20
2016,07,28,12,02,26.20
2016,07,28,12,03,26.30
2016,07,28,12,04,26.40
2016,07,28,12,05,26.40
2016,07,28,12,06,26.40
2016,07,28,12,07,26.50
2016,07,28,12,08,26.60
2016,07,28,12,09,26.70
2016,07,28,12,10,26.80
2016,07,28,12,11,26.80
2016,07,28,12,12,26.80
2016,07,28,12,13,26.80
2016,07,28,12,14,26.80
2016,07,28,12,15,26.90
2016,07,28,12,16,26.90
2016,07,28,12,17,26.90
2016,07,28,12,18,26.90
2016,07,28,12,19,26.90
2016,07,28,12,20,26.90
2016,07,28,12,21,26.90
2016,07,28,12,22,26.90
2016,07,28,12,23,27.00
2016,07,28,12,24,27.10
2016,07,28,12,25,27.10
2016,07,28,12,26,27.20
2016,07,28,12,27,27.20
2016,07,28,12,28,27.20
2016,07,28,12,29,27.20
2016,07,28,12,30,27.20
2016,07,28,12,31,27.20
2016,07,28,12,32,27.30
2016,07,28,12,33,27.30
2016,07,28,12,34,27.40
2016,07,28,12,35,27.40
2016,07,28,12,36,27.40
2016,07,28,12,37,27.40
2016,07,28,12,38,27.40
2016,07,28,12,39,27.40
2016,07,28,12,40,27.40
2016,07,28,12,41,27.40
2016,07,28,12,42,27.40
2016,07,28,12,43,27.40
2016,07,28,12,44,27.40
2016,07,28,12,45,27.50
2016,07,28,12,46,27.60
2016,07,28,12,47,27.70
2016,07,28,12,48,27.70
2016,07,28,12,49,27.70
2016,07,28,12,50,27.80
2016,07,28,12,51,27.80
2016,07,28,12,52,27.80
2016,07,28,12,53,27.80
2016,07,28,12,54,27.80
2016,07,28,12,55,27.80
2016,07,28,12,56,27.80
2016,07,28,12,57,27.90
2016,07,28,12,58,27.90
2016,07,28,12,59,28.00
2016,07,28,13,00,28.10
2016,07,28,13,01,28.10
2016,07,28,13,02,28.10
2016,07,28,13,03,28.10
2016,07,28,13,04,28.10
2016,07,28,13,05,28.10
2016,07,28,13,06,28.10
2016,07,28,13,07,28.10
2016,07,28,13,08,28.20
2016,07,28,13,09,28.30
2016,07,28,13,10,28.30
2016,07,28,13,11,28.20
2016,07,28,13,12,28.20
2016,07,28,13,13,28.20
2016,07,28,13,14,28.20
2016,07,28,13,15,28.20
2016,07,28,13,16,28.20
2016,07,28,13,17,28.30
2016,07,28,13,18,28.30
2016,07,28,13,19,28.30
2016,07,28,13,20,28.30
2016,07,28,13,21,28.30
2016,07,28,13,22,28.40
2016,07,28,13,23,28.40
2016,07,28,13,24,28.40
2016,07,28,13,25,28.40
2016,07,28,13,26,28.50
2016,07,28,13,27,28.60
2016,07,28,13,28,28.60
2016,07,28,13,29,28.70
2016,07,28,13,30,28.80
2016,07,28,13,31,28.80
2016,07,28,13,32,28.90
2016,07,28,13,33,28.90
2016,07,28,13,34,28.90
2016,07,28,13,35,28.90
2016,07,28,13,36,28.90
2016,07,28,13,37,28.90
2016,07,28,13,38,28.90
2016,07,28,13,39,29.00
2016,07,28,13,40,29.10
2016,07,28,13,41,29.10
2016,07,28,13,42,29.10
2016,07,28,13,43,29.20
2016,07,28,13,44,29.10
2016,07,28,13,45,29.00
2016,07,28,13,46,29.00
2016,07,28,13,47,29.00
2016,07,28,13,48,29.00
2016,07,28,13,49,29.00
2016,07,28,13,50,29.00
2016,07,28,13,51,29.00
2016,07,28,13,52,29.10
2016,07,28,13,53,29.20
2016,07,28,13,54,29.20
2016,07,28,13,55,29.20
2016,07,28,13,56,29.20
2016,07,28,13,57,29.20
2016,07,28,13,58,29.30
2016,07,28,13,59,29.30
2016,07,28,14,00,29.40
2016,07,28,14,01,29.40
2016,07,28,14,02,29.40
2016,07,28,14,03,29.40
2016,07,28,14,04,29.40
2016,07,28,14,05,29.40
2016,07,28,14,06,29.50
2016,07,28,14,07,29.60
2016,07,28,14,08,29.60
2016,07,28,14,09,29.60
2016,07,28,14,10,29.50
2016,07,28,14,11,29.50
2016,07,28,14,12,29.40
2016,07,28,14,13,29.40
2016,07,28,14,14,29.40
2016,07,28,14,15,29.40
2016,07,28,14,16,29.50
2016,07,28,14,17,29.60
2016,07,28,14,18,29.60
2016,07,28,14,19,29.60
2016,07,28,14,20,29.60
2016,07,28,14,21,29.60
2016,07,28,14,22,29.60
2016,07,28,14,23,29.60
2016,07,28,14,24,29.60
2016,07,28,14,25,29.60
2016,07,28,14,26,29.60
2016,07,28,14,27,29.70
2016,07,28,14,28,29.80
2016,07,28,14,29,29.80
2016,07,28,14,30,29.80
2016,07,28,14,31,29.90
2016,07,28,14,32,29.90
2016,07,28,14,33,29.90
2016,07,28,14,34,29.80
2016,07,28,14,35,29.80
2016,07,28,14,36,29.70
2016,07,28,14,37,29.70
2016,07,28,14,38,29.80
2016,07,28,14,39,29.90
2016,07,28,14,40,29.90
2016,07,28,14,41,29.90
2016,07,28,14,42,29.90
2016,07,28,14,43,29.90
2016,07,28,14,44,29.90
2016,07,28,14,45,29.90
2016,07,28,14,46,29.90
2016,07,28,14,47,29.90
2016,07,28,14,48,30.00
2016,07,28,14,49,30.10
2016,07,28,14,50,30.10
2016,07,28,14,51,30.20
2016,07,28,14,52,30.30
2016,07,28,14,53,30.30
2016,07,28,14,54,30.30
2016,07,28,14,55,30.30
2016,07,28,14,56,30.30
2016,07,28,14,57,30.30
2016,07,28,14,58,30.30
2016,07,28,14,59,30.20
2016,07,28,15,00,30.20
2016,07,28,15,01,30.30
2016,07,28,15,02,30.30
2016,07,28,15,03,30.30
2016,07,28,15,04,30.30
2016,07,28,15,05,30.30
2016,07,28,15,06,30.30
2016,07,28,15,07,30.40
2016,07,28,15,08,30.40
2016,07,28,15,09,30.40
2016,07,28,15,10,30.40
2016,07,28,15,11,30.40
2016,07,28,15,12,30.40
2016,07,28,15,13,30.40
2016,07,28,15,14,30.50
2016,07,28,15,15,30.50
2016,07,28,15,16,30.60
2016,07,28,15,17,30.60
2016,07,28,15,18,30.60
2016,07,28,15,19,30.50
2016,07,28,15,20,30.50
2016,07,28,15,21,30.50
2016,07,28,15,22,30.50
2016,07,28,15,23,30.50
2016,07,28,15,24,30.50
2016,07,28,15,25,30.60
2016,07,28,15,26,30.60
2016,07,28,15,27,30.60
2016,07,28,15,28,30.60
2016,07,28,15,29,30.60
2016,07,28,15,30,30.60
2016,07,28,15,31,30.60
2016,07,28,15,32,30.60
2016,07,28,15,33,30.60
2016,07,28,15,34,30.70
2016,07,28,15,35,30.70
2016,07,28,15,36,30.80
2016,07,28,15,37,30.80
2016,07,28,15,38,30.80
2016,07,28,15,39,30.80
2016,07,28,15,40,30.80
2016,07,28,15,41,30.80
2016,07,28,15,42,30.90
2016,07,28,15,43,30.90
2016,07,28,15,44,30.90
2016,07,28,15,45,30.90
2016,07,28,15,46,30.80
2016,07,28,15,47,30.80
2016,07,28,15,48,30.80
2016,07,28,15,49,30.80
2016,07,28,15,50,30.80
2016,07,28,15,51,30.80
2016,07,28,15,52,30.80
2016,07,28,15,53,30.80
2016,07,28,15,54,30.80
2016,07,28,15,55,30.80
2016,07,28,15,56,30.80
2016,07,28,15,57,30.80
2016,07,28,15,58,30.80
2016,07,28,15,59,30.70
2016,07,28,16,00,30.50
2016,07,28,16,01,30.10
2016,07,28,16,02,29.60
2016,07,28,16,03,29.30
2016,07,28,16,04,29.10
2016,07,28,16,05,29.00
2016,07,28,16,06,28.90
2016,07,28,16,07,28.80
2016,07,28,16,08,28.70
2016,07,28,16,09,28.50
2016,07,28,16,10,28.20
2016,07,28,16,11,27.90
2016,07,28,16,12,27.60
2016,07,28,16,13,27.40
2016,07,28,16,14,27.30
2016,07,28,16,15,27.20
2016,07,28,16,16,27.20
2016,07,28,16,17,27.00
2016,07,28,16,18,26.80
2016,07,28,16,19,26.60
2016,07,28,16,20,26.40
2016,07,28,16,21,26.20
2016,07,28,16,22,26.10
2016,07,28,16,23,26.00
2016,07,28,16,24,26.20
2016,07,28,16,25,26.30
2016,07,28,16,26,26.50
2016,07,28,16,27,26.60
2016,07,28,16,28,26.70
2016,07,28,16,29,26.80
2016,07,28,16,30,26.90
2016,07,28,16,31,27.00
2016,07,28,16,32,27.10
2016,07,28,16,33,27.30
2016,07,28,16,34,27.30
2016,07,28,16,35,27.30
2016,07,28,16,36,27.20
2016,07,28,16,37,27.00
2016,07,28,16,38,26.80
2016,07,28,16,39,26.80
2016,07,28,16,40,26.80
2016,07,28,16,41,26.70
2016,07,28,16,42,26.70
2016,07,28,16,43,26.70
2016,07,28,16,44,26.60
2016,07,28,16,45,26.60
2016,07,28,16,46,26.40
2016,07,28,16,47,26.30
2016,07,28,16,48,26.30
2016,07,28,16,49,26.30
2016,07,28,16,50,26.30
2016,07,28,16,51,26.40
2016,07,28,16,52,26.40
2016,07,28,16,53,26.50
2016,07,28,16,54,26.60
2016,07,28,16,55,26.80
2016,07,28,16,56,26.80
2016,07,28,16,57,26.80
2016,07,28,16,58,26.70
2016,07,28,16,59,26.50
2016,07,28,17,00,26.40
2016,07,28,17,01,26.40
2016,07,28,17,02,26.30
2016,07,28,17,03,26.30
2016,07,28,17,04,26.40
2016,07,28,17,05,26.40
2016,07,28,17,06,26.40
2016,07,28,17,07,26.20
2016,07,28,17,08,26.10
2016,07,28,17,09,26.00
2016,07,28,17,10,26.00
2016,07,28,17,11,26.00
2016,07,28,17,12,26.20
2016,07,28,17,13,26.30
2016,07,28,17,14,26.30
2016,07,28,17,15,26.40
2016,07,28,17,16,26.40
2016,07,28,17,17,26.50
2016,07,28,17,18,26.60
2016,07,28,17,19,26.60